PRAES SBJF-SBJR

Flight info

Callsign PRAES
Flight time N/A
Altitude 8500
Route DCT VERDE REA PONTAL DCT
Aircraft P28A/L-V/N

Departure

Time 2026-04-25 15:41
Airport Francisco de Assis Airport (SBJF)

Arrival

Time N/A
Airport Jacarepaguá - Roberto Marinho Airport (SBJR)
Time Latitude Longitude Altitude Speed Heading
2026-04-25 14:51 -21.79189 -43.38514 2958 ft 0 kts 186°
2026-04-25 15:37 -21.79220 -43.38518 2955 ft 13 kts 186°
2026-04-25 15:38 -21.79327 -43.38530 2954 ft 11 kts 194°
2026-04-25 15:38 -21.79359 -43.38581 2955 ft 8 kts 272°
2026-04-25 15:38 -21.79364 -43.38623 2955 ft 5 kts 223°
2026-04-25 15:38 -21.79411 -43.38635 2955 ft 10 kts 185°
2026-04-25 15:39 -21.79497 -43.38643 2956 ft 15 kts 185°
2026-04-25 15:39 -21.79617 -43.38653 2955 ft 19 kts 184°
2026-04-25 15:39 -21.79761 -43.38666 2956 ft 14 kts 185°
2026-04-25 15:39 -21.79814 -43.38644 2955 ft 7 kts 181°
2026-04-25 15:40 -21.79822 -43.38672 2955 ft 3 kts 325°
2026-04-25 15:40 -21.79815 -43.38674 2954 ft 0 kts 356°
2026-04-25 15:40 -21.79777 -43.38672 2954 ft 23 kts
2026-04-25 15:40 -21.79444 -43.38638 2955 ft 72 kts
2026-04-25 15:41 -21.78853 -43.38577 3089 ft 88 kts
2026-04-25 15:41 -21.78277 -43.38475 3485 ft 82 kts
2026-04-25 15:41 -21.77678 -43.38333 3770 ft 96 kts
2026-04-25 15:41 -21.77026 -43.38271 4223 ft 79 kts 334°
2026-04-25 15:42 -21.76836 -43.38681 4573 ft 80 kts 248°
2026-04-25 15:42 -21.77030 -43.39235 4917 ft 84 kts 259°
2026-04-25 15:42 -21.77345 -43.39754 5363 ft 92 kts 207°
2026-04-25 15:42 -21.78074 -43.39769 5536 ft 112 kts 186°
2026-04-25 15:43 -21.78764 -43.39764 6024 ft 101 kts 187°
2026-04-25 15:43 -21.79507 -43.39754 6217 ft 110 kts 184°
2026-04-25 15:43 -21.80249 -43.39641 6645 ft 105 kts 177°
2026-04-25 15:43 -21.81000 -43.39463 6806 ft 120 kts 172°
2026-04-25 15:44 -21.81889 -43.39256 6803 ft 139 kts 173°
2026-04-25 15:44 -21.82854 -43.39048 6896 ft 141 kts 174°
2026-04-25 15:44 -21.83840 -43.38860 7021 ft 145 kts 181°
2026-04-25 15:44 -21.84673 -43.39297 7110 ft 134 kts 238°
2026-04-25 15:45 -21.85075 -43.40181 7236 ft 129 kts 247°
2026-04-25 15:45 -21.85439 -43.41025 7358 ft 125 kts 248°
2026-04-25 15:45 -21.85789 -43.41850 7455 ft 117 kts 247°
2026-04-25 15:45 -21.86012 -43.42361 7513 ft 106 kts 247°
2026-04-25 15:46 -21.86401 -43.43232 7617 ft 91 kts 247°
2026-04-25 15:46 -21.86671 -43.43821 7685 ft 83 kts 247°
2026-04-25 15:46 -21.86926 -43.44361 7772 ft 81 kts 246°
2026-04-25 15:46 -21.87169 -43.44904 7869 ft 79 kts 246°
2026-04-25 15:47 -21.87400 -43.45426 7961 ft 74 kts 248°
2026-04-25 15:47 -21.87633 -43.45942 8100 ft 80 kts 247°
2026-04-25 15:47 -21.87884 -43.46490 8231 ft 83 kts 245°
2026-04-25 15:47 -21.88130 -43.47042 8367 ft 82 kts 246°
2026-04-25 15:48 -21.88375 -43.47602 8487 ft 83 kts 247°
2026-04-25 15:48 -21.88618 -43.48160 8600 ft 81 kts 247°
2026-04-25 15:48 -21.88877 -43.48758 8632 ft 98 kts 246°
2026-04-25 15:48 -21.89184 -43.49477 8625 ft 110 kts 247°
2026-04-25 15:49 -21.89503 -43.50226 8623 ft 110 kts 247°
2026-04-25 15:49 -21.89827 -43.50983 8519 ft 113 kts 247°
2026-04-25 15:49 -21.90150 -43.51744 8372 ft 110 kts 247°
2026-04-25 15:49 -21.90475 -43.52493 8219 ft 110 kts 246°
2026-04-25 15:50 -21.90780 -43.53209 8072 ft 105 kts 247°
2026-04-25 15:50 -21.91091 -43.53930 7847 ft 110 kts 248°
2026-04-25 15:50 -21.91419 -43.54678 7590 ft 111 kts 247°
2026-04-25 15:50 -21.91753 -43.55436 7334 ft 113 kts 247°
2026-04-25 15:51 -21.92105 -43.56214 7090 ft 118 kts 247°
2026-04-25 15:51 -21.92340 -43.56735 6922 ft 116 kts 247°
2026-04-25 15:51 -21.92810 -43.57789 6591 ft 115 kts 247°
2026-04-25 15:51 -21.93148 -43.58549 6491 ft 106 kts 247°
2026-04-25 15:52 -21.93448 -43.59222 6486 ft 93 kts 248°
2026-04-25 15:52 -21.93718 -43.59805 6494 ft 84 kts 246°
2026-04-25 15:52 -21.93978 -43.60386 6497 ft 87 kts 247°
2026-04-25 15:52 -21.94246 -43.60974 6492 ft 87 kts 248°
2026-04-25 15:53 -21.94511 -43.61541 6492 ft 83 kts 246°
2026-04-25 15:53 -21.94747 -43.62078 6492 ft 76 kts 248°
2026-04-25 15:53 -21.94981 -43.62580 6498 ft 77 kts 247°
2026-04-25 15:53 -21.95219 -43.63122 6503 ft 82 kts 248°
2026-04-25 15:54 -21.95459 -43.63664 6515 ft 79 kts 248°
2026-04-25 15:54 -21.95717 -43.64233 6515 ft 90 kts 247°
2026-04-25 15:54 -21.96007 -43.64852 6511 ft 95 kts 247°
2026-04-25 15:54 -21.96299 -43.65487 6514 ft 97 kts 247°
2026-04-25 15:55 -21.96599 -43.66151 6509 ft 102 kts 247°
2026-04-25 15:55 -21.96906 -43.66833 6510 ft 102 kts 247°
2026-04-25 15:55 -21.97214 -43.67510 6505 ft 99 kts 247°
2026-04-25 15:55 -21.97574 -43.68129 6509 ft 102 kts 224°
2026-04-25 15:56 -21.98261 -43.68456 6503 ft 110 kts 206°
2026-04-25 15:56 -21.98936 -43.68789 6505 ft 108 kts 212°
2026-04-25 15:56 -21.99610 -43.69153 6507 ft 110 kts 212°
2026-04-25 15:56 -22.00288 -43.69520 6505 ft 107 kts 211°
2026-04-25 15:57 -22.00997 -43.69757 6494 ft 107 kts 196°
2026-04-25 15:57 -22.01753 -43.69907 6493 ft 111 kts 197°
2026-04-25 15:57 -22.02494 -43.70067 6495 ft 107 kts 197°
2026-04-25 15:57 -22.03215 -43.70268 6489 ft 108 kts 206°
2026-04-25 15:58 -22.03914 -43.70556 6490 ft 111 kts 206°
2026-04-25 15:58 -22.04626 -43.70849 6502 ft 111 kts 205°
2026-04-25 15:58 -22.05360 -43.71153 6519 ft 114 kts 206°
2026-04-25 15:58 -22.06111 -43.71461 6521 ft 116 kts 205°
2026-04-25 15:59 -22.06880 -43.71776 6498 ft 117 kts 205°
2026-04-25 15:59 -22.07647 -43.72090 6506 ft 121 kts 205°
2026-04-25 15:59 -22.08467 -43.72330 6491 ft 122 kts 199°
2026-04-25 15:59 -22.09284 -43.72548 6496 ft 119 kts 199°
2026-04-25 16:00 -22.10080 -43.72763 6494 ft 117 kts 199°
2026-04-25 16:00 -22.10336 -43.72831 6493 ft 117 kts 199°
2026-04-25 16:00 -22.11635 -43.73176 6488 ft 115 kts 199°
2026-04-25 16:00 -22.12402 -43.73378 6492 ft 113 kts 198°
2026-04-25 16:01 -22.13179 -43.73540 6491 ft 115 kts 196°
2026-04-25 16:01 -22.13967 -43.73719 6501 ft 117 kts 197°
2026-04-25 16:01 -22.14776 -43.73908 6497 ft 120 kts 198°
2026-04-25 16:01 -22.15584 -43.74123 6508 ft 120 kts 198°
2026-04-25 16:02 -22.16395 -43.74334 6479 ft 117 kts 197°
2026-04-25 16:02 -22.17192 -43.74533 6498 ft 119 kts 197°
2026-04-25 16:02 -22.17999 -43.74740 6495 ft 120 kts 198°
2026-04-25 16:02 -22.18805 -43.74943 6494 ft 117 kts 198°
2026-04-25 16:03 -22.19609 -43.75152 6485 ft 121 kts 199°
2026-04-25 16:03 -22.20419 -43.75355 6489 ft 120 kts 197°
2026-04-25 16:03 -22.21242 -43.75565 6508 ft 123 kts 198°
2026-04-25 16:03 -22.22081 -43.75789 6482 ft 125 kts 198°
2026-04-25 16:04 -22.22911 -43.76008 6497 ft 124 kts 198°
2026-04-25 16:04 -22.23723 -43.76226 6464 ft 116 kts 199°
2026-04-25 16:04 -22.24463 -43.76418 6491 ft 108 kts 198°
2026-04-25 16:04 -22.25186 -43.76606 6471 ft 102 kts 198°
2026-04-25 16:05 -22.25852 -43.76773 6478 ft 99 kts 198°
2026-04-25 16:05 -22.26524 -43.76947 6488 ft 100 kts 200°
2026-04-25 16:05 -22.27892 -43.77245 6477 ft 97 kts 196°
2026-04-25 16:06 -22.28571 -43.77390 6489 ft 103 kts 196°
2026-04-25 16:06 -22.29267 -43.77535 6486 ft 102 kts 196°
2026-04-25 16:06 -22.29955 -43.77684 6500 ft 101 kts 196°
2026-04-25 16:06 -22.30657 -43.77827 6487 ft 103 kts 195°
2026-04-25 16:07 -22.31339 -43.77967 6473 ft 99 kts 195°
2026-04-25 16:07 -22.31779 -43.78071 6473 ft 92 kts 198°
2026-04-25 16:07 -22.32625 -43.78281 6483 ft 97 kts 198°
2026-04-25 16:07 -22.33322 -43.78456 6484 ft 106 kts 197°
2026-04-25 16:08 -22.34042 -43.78644 6490 ft 109 kts 198°
2026-04-25 16:08 -22.34802 -43.78844 6481 ft 116 kts 198°
2026-04-25 16:08 -22.35597 -43.79053 6497 ft 119 kts 198°
2026-04-25 16:08 -22.36429 -43.79273 6451 ft 128 kts 198°
2026-04-25 16:09 -22.37239 -43.79479 6468 ft 116 kts 197°
2026-04-25 16:09 -22.38014 -43.79680 6485 ft 117 kts 199°
2026-04-25 16:09 -22.38825 -43.79897 6479 ft 121 kts 198°
2026-04-25 16:09 -22.39651 -43.80117 6483 ft 123 kts 198°
2026-04-25 16:10 -22.40463 -43.80342 6462 ft 117 kts 198°
2026-04-25 16:10 -22.41237 -43.80538 6476 ft 113 kts 197°
2026-04-25 16:10 -22.41999 -43.80719 6472 ft 113 kts 197°
2026-04-25 16:10 -22.42770 -43.80905 6473 ft 114 kts 198°
2026-04-25 16:11 -22.43547 -43.81097 6471 ft 115 kts 197°
2026-04-25 16:11 -22.44335 -43.81288 6477 ft 114 kts 197°
2026-04-25 16:11 -22.45096 -43.81478 6472 ft 114 kts 197°
2026-04-25 16:11 -22.45865 -43.81660 6468 ft 112 kts 197°
2026-04-25 16:12 -22.46634 -43.81844 6466 ft 116 kts 197°
2026-04-25 16:12 -22.47406 -43.82033 6462 ft 112 kts 197°
2026-04-25 16:12 -22.48159 -43.82223 6468 ft 111 kts 198°
2026-04-25 16:12 -22.48661 -43.82339 6461 ft 112 kts 197°
2026-04-25 16:13 -22.49678 -43.82580 6474 ft 112 kts 198°
2026-04-25 16:13 -22.50422 -43.82768 6464 ft 108 kts 197°
2026-04-25 16:13 -22.51146 -43.82941 6478 ft 108 kts 196°
2026-04-25 16:13 -22.51886 -43.83120 6463 ft 107 kts 197°
2026-04-25 16:14 -22.52611 -43.83296 6473 ft 110 kts 197°
2026-04-25 16:14 -22.53355 -43.83473 6458 ft 107 kts 197°
2026-04-25 16:14 -22.54071 -43.83640 6465 ft 105 kts 198°
2026-04-25 16:14 -22.54792 -43.83800 6455 ft 106 kts 197°
2026-04-25 16:15 -22.55513 -43.83959 6452 ft 104 kts 197°
2026-04-25 16:15 -22.56221 -43.84118 6461 ft 106 kts 196°
2026-04-25 16:15 -22.56949 -43.84282 6462 ft 107 kts 197°
2026-04-25 16:15 -22.57671 -43.84444 6465 ft 107 kts 197°
2026-04-25 16:16 -22.58406 -43.84617 6461 ft 109 kts 197°
2026-04-25 16:16 -22.59131 -43.84779 6460 ft 105 kts 197°
2026-04-25 16:16 -22.59867 -43.84949 6467 ft 111 kts 197°
2026-04-25 16:16 -22.60641 -43.85133 6472 ft 116 kts 198°
2026-04-25 16:17 -22.61424 -43.85307 6455 ft 112 kts 197°
2026-04-25 16:17 -22.62166 -43.85474 6445 ft 106 kts 197°
2026-04-25 16:17 -22.62894 -43.85638 6450 ft 105 kts 197°
2026-04-25 16:17 -22.63620 -43.85798 6446 ft 106 kts 197°
2026-04-25 16:18 -22.64337 -43.85963 6464 ft 106 kts 198°
2026-04-25 16:18 -22.64588 -43.86021 6452 ft 111 kts 197°
2026-04-25 16:18 -22.65814 -43.86298 6441 ft 106 kts 198°
2026-04-25 16:18 -22.66530 -43.86465 6436 ft 105 kts 198°
2026-04-25 16:19 -22.67243 -43.86629 6464 ft 107 kts 197°
2026-04-25 16:19 -22.67979 -43.86801 6442 ft 106 kts 197°
2026-04-25 16:19 -22.68681 -43.86972 6438 ft 104 kts 196°
2026-04-25 16:20 -22.70083 -43.87316 6436 ft 102 kts 197°
2026-04-25 16:20 -22.70764 -43.87474 6435 ft 99 kts 197°
2026-04-25 16:20 -22.72002 -43.87753 6421 ft 82 kts 197°
2026-04-25 16:21 -22.72545 -43.87866 6432 ft 80 kts 198°
2026-04-25 16:21 -22.73090 -43.88005 6433 ft 81 kts 196°
2026-04-25 16:21 -22.73618 -43.88130 6405 ft 74 kts 196°
2026-04-25 16:21 -22.74014 -43.88174 4804 ft 65 kts 278°
2026-04-25 16:22 -22.74416 -43.88773 1138 ft 0 kts 225°